Powrót do katalogu

STARLINK-30141

AktywnyŁącznośćVLEO
NORAD 57620·PAYLOAD·🇺🇸 United States

Wystrzelony Aug 11, 2023 z Cape Canaveral Space Force Station

Loading…

Następne Przeloty (najbliższe 24 godziny)

TLE

ŚwieżeSource: CelesTrak SupGP

Epoka: Sep 15, 2026, 02:45 UTC

1 57620C 23119U   26258.11506944  .00014337  00000+0  51922-3 0  2586
2 57620  43.0000  91.7003 0001576 275.6772 233.3233 15.27574912    17

Śledź STARLINK-30141 w czasie rzeczywistym z AllMySat

Download on the App Store